Location: Poprad
(49.0500°N, 20.3000°E)
Time: 12:38:03
(UTC+02:00)

AO-73 - Pass Details

Date: 03 May 2024
Orbit: 559 x 625 km, 97.7° (Epoch: 29 May)

Event Time Altitude Azimuth Distance (km) Brightness Sun altitude
Rises 02:37:47 0° 29° (NNE) 2,925 ? -19.8°
Reaches altitude 10° 02:40:51 10° 52° (NE) 2,009 ? -19.5°
Maximum altitude 02:43:26 15° 89° (E) 1,677 ? -19.3°
Drops below altitude 10° 02:46:00 10° 125° (SE) 1,989 ? -19.0°
Enters shadow 02:47:57 - 142° (SE) 2,529 ? -18.9°
